#timestamp,LO_Frequency,Hit,StdDev 
1546419615.6,286046998.1,N
1546419635.5,286046999.4,N
1546419655.3,286046999.6,N
1546419675.1,286046998.9,N
1546419695.9,286046998.8,N
1546419715.7,286047000.8,N
1546419735.5,286047001.2,N
1546419755.4,286046999.4,N
1546419775.2,286046998.7,N
1546419795.1,286046998.1,N
1546419796.0,286046998.1,N
1546419815.8,286047001.1,N
1546419835.6,286047002.6,N
1546419855.5,286047002.2,N
1546419875.3,286047001.0,N
1546419895.1,286047001.1,N
1546419915.9,286047000.2,N
1546419935.7,286047000.4,N
1546419955.6,286047000.5,N
1546419975.4,286046998.2,N
1546419995.2,286046996.9,N
1546420015.1,286046999.2,N
1546420016.0,286046999.2,N
1546420035.8,286046995.4,Y
1546420055.6,286046997.7,P
1546420075.5,286046998.0,N
1546420095.3,286046996.6,P
1546420115.2,286046997.2,N
1546420135.9,286046995.1,Y
1546420155.7,286047000.7,P
1546420175.6,286047000.6,N
1546420195.4,286047000.9,N
1546420215.3,286047001.2,N
1546420235.1,286047001.0,N
1546420236.0,286047001.0,N
1546420255.8,286046999.4,N
1546420275.7,286046999.3,N
1546420295.5,286046999.2,N
1546420315.3,286046997.2,N
1546420335.2,286046998.6,N
1546420355.0,286046998.8,N
1546420355.9,286046998.8,N
1546420375.8,286047002.8,N
1546420395.6,286046999.8,N
1546420415.4,286046999.7,N
1546420435.3,286047002.5,N
1546420455.1,286047002.1,N
1546420456.0,286047002.1,N
1546420475.8,286047002.0,N
1546420495.7,286047001.8,N
1546420515.5,286047002.5,N
1546420535.3,286047002.2,N
1546420555.2,286047002.4,N
1546420575.0,286047000.1,N
1546420575.9,286047000.1,N
1546420595.8,286047004.0,N
1546420615.6,286047001.9,N
1546420635.4,286047001.5,N
1546420655.3,286047002.8,N
1546420675.1,286047001.4,N
1546420695.8,286047004.4,N
1546420715.7,286047002.6,N
1546420735.5,286047000.9,N
1546420755.4,286047002.4,N
1546420775.2,286047002.1,N
1546420795.0,286047000.1,N
1546420795.9,286047000.1,N
1546420815.8,286046998.3,N
1546420835.6,286047000.0,N
1546420855.4,286046998.1,N
1546420875.3,286047001.2,N
1546420895.1,286046998.2,N
1546420915.9,286047000.3,N
1546420935.7,286046998.6,N
1546420955.5,286046998.9,N
1546420975.4,286046998.7,N
1546420995.2,286047000.5,N
1546421015.0,286046998.4,N
1546421015.9,286046998.4,N
1546421035.8,286046998.4,N
1546421055.6,286046996.5,N
1546421075.4,286046999.5,N
1546421095.3,286046999.1,N
1546421115.1,286046996.9,N
1546421135.9,286046999.6,N
1546421155.7,286046998.9,N
1546421175.5,286046998.2,N
1546421195.4,286047000.7,N
1546421215.2,286047001.1,N
1546421235.0,286046998.6,N
1546421235.9,286046998.6,N
1546421255.8,286046996.5,N
1546421275.6,286046998.7,N
1546421295.5,286047001.2,N
1546421315.3,286047001.1,N
1546421335.1,286046997.2,N
1546421355.9,286046999.0,N
1546421375.7,286046998.6,N
1546421395.5,286046998.6,N
1546421415.4,286046999.5,N
1546421435.2,286046999.9,N
1546421455.1,286046999.8,N
1546421456.0,286046999.8,N
1546421475.8,286047002.7,N
1546421495.6,286047000.4,N
1546421515.5,286046998.1,N
1546421535.3,286047000.3,N
1546421555.1,286047000.1,N
1546421575.9,286047001.7,N
1546421595.7,286047004.1,N
1546421615.6,286047003.3,N
1546421635.4,286047003.3,N
1546421655.2,286047003.9,N
1546421675.1,286047002.0,N
1546421676.0,286047002.0,N
1546421695.8,286046999.9,N
1546421715.6,286047001.9,N
1546421735.5,286047002.1,N
1546421755.3,286047003.1,N
1546421775.2,286047005.5,N
1546421795.9,286047003.4,N
1546421815.7,286047003.8,N
1546421835.6,286047007.1,Y
1546421855.4,286047005.3,P
1546421875.2,286047004.5,N
1546421895.1,286047005.1,N
1546421896.0,286047005.1,Y
1546421915.8,286047007.2,P
1546421935.7,286047007.8,P
1546421955.5,286047008.9,P
1546421975.3,286047005.9,Y
1546421995.2,286046997.7,P
1546422015.0,286046995.0,N
1546422015.9,286046995.0,N
1546422035.8,286046995.0,N
1546422055.6,286046997.5,N
1546422075.4,286046996.0,N
1546422095.3,286046995.4,N
1546422115.1,286046995.4,N
1546422135.8,286046997.9,N
1546422155.7,286046996.3,N
1546422175.5,286046995.9,N
1546422195.4,286046995.2,N
1546422215.2,286047001.2,N
1546422235.0,286046998.2,N
1546422235.9,286046998.2,N
1546422255.8,286046999.2,N
1546422275.6,286046997.8,N
1546422295.4,286046997.5,N
1546422315.3,286046996.4,N
1546422335.1,286046993.5,N
1546422355.9,286046993.7,N
1546422375.7,286046995.3,N
1546422395.5,286046997.0,N
1546422415.4,286046997.2,N
1546422435.2,286046998.0,N
1546422455.0,286046997.6,N
1546422455.9,286046997.6,N
1546422475.8,286046997.2,N
1546422495.6,286046997.8,N
1546422515.5,286046995.4,N
1546422535.3,286046993.3,Y
1546422555.1,286046999.3,P
1546422575.9,286046999.5,N
1546422595.7,286046998.1,N
1546422615.5,286046998.2,N
1546422635.4,286047000.1,N
1546422655.2,286046998.5,N
1546422675.1,286046996.7,Y
1546422676.0,286046996.7,P
1546422695.8,286046999.1,N
1546422715.6,286047001.2,N
1546422735.5,286046999.2,N
1546422755.3,286046998.0,N
1546422775.1,286046999.6,N
1546422795.9,286046998.4,N
1546422815.7,286046998.9,N
1546422835.6,286046998.3,N
1546422855.4,286046999.1,N
1546422875.2,286046998.7,N
1546422895.1,286046998.4,N
1546422896.0,286046998.4,N
1546422915.8,286047002.8,N
1546422935.6,286046998.1,N
1546422955.5,286047002.3,N
1546422975.3,286047002.3,N
1546422995.2,286047002.0,N
1546423015.9,286047000.7,N
1546423035.7,286047000.1,N
1546423055.6,286047000.5,N
1546423075.4,286046998.9,N
1546423095.2,286046998.8,N
1546423115.1,286046998.1,N
1546423116.0,286046998.1,N
1546423135.8,286046998.2,N
1546423155.7,286046998.8,N
1546423175.5,286046998.9,N
1546423195.3,286047000.8,N
